Location: Newark
(33.6439°N, 114.9881°W)
Time: 06:44:59
(UTC+00:00)

A-11 Canister half - Pass Details

Date: 31 August 2019
Orbit: 1527 x 1682 km, 47.3° (Epoch: 15 September)

Event Time Altitude Azimuth Distance (km) Brightness Sun altitude
Rises 15:12:16 0° 208° (SSW) 4,724 11.3 23.8°
Reaches altitude 10° 15:15:26 10° 203° (SSW) 3,761 11.0 24.5°
Maximum altitude 15:24:28 48° 132° (SE) 2,006 10.7 26.4°
Drops below altitude 10° 15:33:49 10° 62° (ENE) 3,890 12.1 28.3°
Sets 15:37:07 0° 57° (ENE) 4,897 12.3 29.0°
